Location: Bakhuizen
(52.8696°N, 5.4575°E)
Time: 22:29:30
(UTC+00:00)

Cosmos 1833 - Pass Details

Date: 27 September 2021
Orbit: 834 x 864 km, 70.9° (Epoch: 24 October)

Event Time Altitude Azimuth Distance (km) Brightness Sun altitude
Rises 20:43:12 0° 315° (NW) 3,397 8.6 -28.7°
Reaches altitude 10° 20:47:31 10° 284° (WNW) 2,453 7.3 -29.2°
Maximum altitude 20:49:14 11° 266° (W) 2,348 7.0 -29.3°
Drops below altitude 10° 20:50:57 10° 247° (WSW) 2,447 6.8 -29.5°
Enters shadow 20:54:12 - 222° (SW) 3,084 7.1 -29.9°
